Weather in Nosovo

Russia / Pskov Oblast     57°06′35″N   27°49′08″E
temp.,
°C
wind,
m/s
gust,
m/s
humid.,
%
clouds,
%
prec.,
mm/h
press.,
hPa
HPBL,
m
15 may, sat
sat1500:00+11ese379616 0.1 1006157
03:00+9ese229582 0.1 100622
06:00+10ese2494100 0.1 100574
09:00+12e019598 1.9 100590
12:00+14wsw1188100 0.3 1006325
15:00+16w128099 0.9 1005535
18:00+17nw347312 1.0 1004820
21:00+13wnw239098 2.6 100529
16 may, sun
sun1600:00+11wnw389643 0.1 1006166
03:00+9wnw369133 0.1 100797
06:00+8w34925 0.0 100874
09:00+13w23755 0.0 1009329
12:00+18wsw12575 0.0 1010959
15:00+20s235173 0.0 10091843
18:00+18ssw346942 0.5 1009722
21:00+14sse22861 1.4 101015
17 may, mon
mon1700:00+12sse349393 0.0 101057
03:00+11se36958 0.0 1009109
06:00+11se4129454 0.0 1008264
09:00+16se61382100 0.0 1008557
12:00+19sse61074100 0.6 10071030
15:00+15sse51290100 5.3 1007591
18:00+14sse41194100 2.9 1007543
21:00+13ese3597100 3.0 1006167
18 may, tue
tue1800:00+11e1297100 0.8 100518
03:00+11e119783 0.8 100411
06:00+11nne2498100 0.0 1003108
09:00+12nne2497100 1.9 1001268
12:00+13nnw3495100 6.9 1001289
15:00+16nne348677 7.0 1000639
18:00+14ne3596100 0.3 998295
21:00+13wnw3698100 1.1 997278
19 may, wed
wed1900:00+13wsw259891 0.1 998175
03:00+12sw3598100 0.1 998132
06:00+11sw4898100 0.1 999351
09:00+11sw4794100 0.1 1000387
12:00+12w5689100 0.1 1001586
15:00+13wsw5785100 0.7 1001735
18:00+12w71088100 0.6 1001796
21:00+10w71289100 0.7 1002868